Weather observations for the past three days for
Farmingdale - Republic Airport
Metric (Imperial)
Date Time (edt) Wind (kph) Vis. (km) Weather Sky Cond. Temperature (ºC) Relative Humidity Wind Chill (°C) Heat Index (°C) Pressure Precipitation (cm)
Air Dwpt 6 hour altimeter (cm) sea level (mb) 1 hr 3 hr 6 hr
Max. Min.
21 01:53 SW 7 16.09 Partly Cloudy SCT120 24.4 18.3 25 22.8 69% 25 76.25 1016.5
21 00:53 W 7 16.09 Mostly Cloudy BKN110 24.4 18.3 69% 25 76.3 1017.1
20 23:53 SW 9 16.09 Mostly Cloudy BKN110 24.4 18.3 69% 25 76.33 1017.4
20 22:53 SW 13 16.09 Partly Cloudy SCT120 24.4 18.9 72% 25 76.33 1017.6
20 21:53 SW 11 16.09 Fair CLR 24.4 18.9 72% 25 76.35 1017.9
20 20:53 SW 15 16.09 Fair CLR 24.4 18.9 72% 25 76.35 1017.7
20 19:53 SW 22 16.09 Fair CLR 25 16.7 27.8 25 60% 26 76.33 1017.5
20 18:53 SW 22 16.09 Fair CLR 25.6 16.7 58% 26 76.33 1017.4
20 17:53 SW 26 16.09 Fair CLR 26.1 17.2 58% 27 76.33 1017.6
20 16:53 SW 22 G 46 16.09 Fair CLR 27.2 17.8 57% 28 76.38 1018.1
20 15:53 S 24 16.09 Partly Cloudy SCT100 26.7 18.3 60% 28 76.38 1018.2
20 14:53 SW 20 16.09 Fair CLR 27.2 17.8 57% 28 76.4 1018.5
20 13:53 S 20 16.09 Mostly Cloudy BKN100 26.7 18.9 27.8 22.8 62% 28 76.43 1019.0
20 12:53 S 15 16.09 Fair CLR 27.2 17.8 57% 28 76.48 1019.4
20 11:53 S 13 16.09 Fair CLR 27.2 19.4 62% 29 76.48 1019.5
20 10:53 S 15 16.09 A Few Clouds FEW065 26.1 19.4 67% 27 76.48 1019.7
20 09:53 W 9 16.09 Fair CLR 26.7 17.8 58% 28 76.5 1019.8
20 08:53 SW 6 16.09 Fair CLR 24.4 18.3 69% 25 76.5 1020.0
20 07:53 SW 6 16.09 Fair CLR 22.8 18.3 22.8 20 76% 76.53 1020.2
20 06:53 Calm 16.09 Fair CLR 21.1 18.3 84% 76.53 1020.1
20 05:53 Calm 16.09 Fair CLR 20.6 17.8 84% 76.5 1019.8
20 04:53 Calm 16.09 Fair CLR 20.6 17.8 84% 76.5 1019.8
20 03:53 Calm 16.09 Fair CLR 21.1 18.9 87% 76.48 1019.6
20 02:53 SW 6 16.09 Fair CLR 21.7 18.9 84% 76.5 1019.7
20 01:53 SW 9 16.09 Fair CLR 21.7 19.4 23.3 21.1 87% 76.53 1020.1
20 00:53 SW 7 16.09 Fair CLR 21.7 17.8 79% 76.56 1020.4
19 23:53 SW 11 16.09 Fair CLR 21.7 17.2 76% 76.53 1020.4
19 22:53 SW 7 16.09 Fair CLR 22.2 17.2 73% 76.53 1020.1
19 21:53 SW 7 16.09 Fair CLR 22.2 18.3 79% 76.53 1020.2
19 20:53 SW 17 16.09 Fair CLR 23.3 17.2 69% 76.5 1019.8
19 19:53 SW 15 16.09 Fair CLR 22.8 16.7 28.3 22.8 69% 76.48 1019.4
19 18:53 S 11 16.09 Mostly Cloudy BKN070 26.7 14.4 47% 27 76.43 1018.8
19 17:53 Vrbl 9 16.09 Partly Cloudy SCT065 26.7 13.3 44% 27 76.4 1018.5
19 16:53 S 19 16.09 Partly Cloudy SCT065 27.2 15 47% 27 76.43 1018.8
19 15:53 S 19 16.09 Fair CLR 26.7 15.6 51% 27 76.43 1018.8
19 14:53 S 15 16.09 Partly Cloudy SCT060 27.2 15.6 49% 28 76.45 1019.1
19 13:53 N 13 16.09 Fair CLR 27.8 13.3 28.3 21.7 41% 28 76.45 1019.3
19 12:53 Calm 16.09 Fair CLR 26.7 12.2 41% 27 76.5 1019.7
19 11:53 Vrbl 7 16.09 Fair CLR 25.6 12.8 45% 26 76.48 1019.6
19 10:53 N 13 G 28 16.09 Fair CLR 25.6 13.9 48% 26 76.48 1019.7
19 09:53 N 17 16.09 Fair CLR 23.9 14.4 55% 25 76.48 1019.6
19 08:53 N 17 16.09 Fair CLR 23.3 13.9 56% 76.48 1019.5
19 07:53 N 15 16.09 Fair CLR 21.7 14.4 22.2 19.4 63% 76.45 1019.2
19 06:53 N 13 16.09 Fair CLR 20 13.9 68% 76.4 1018.5
19 05:53 N 11 16.09 Fair CLR 19.4 13.9 71% 76.33 1017.6
19 04:53 N 13 16.09 Fair CLR 20 13.9 68% 76.3 1017.2
19 03:53 N 15 16.09 Fair CLR 21.1 13.3 61% 76.28 1016.7
19 02:53 N 13 16.09 Fair CLR 21.7 13.9 61% 76.25 1016.6
19 01:53 N 13 16.09 Fair CLR 22.2 15 28.3 22.2 64% 76.25 1016.4
19 00:53 N 13 16.09 Fair CLR 22.8 15.6 64% 76.23 1016.1
18 23:53 N 9 16.09 Fair CLR 23.9 14.4 55% 25 76.2 1015.6
18 22:53 N 9 16.09 Fair CLR 25 14.4 52% 26 76.15 1015.3
18 21:53 NW 7 16.09 Fair CLR 25.6 14.4 50% 26 76.15 1015.1
18 20:53 NW 11 16.09 Fair CLR 26.7 15 49% 27 76.07 1014.1
18 19:53 NW 6 16.09 Fair CLR 28.3 16.1 30 26.7 48% 29 76.02 1013.4
18 18:53 SW 6 16.09 A Few Clouds FEW055 27.8 18.9 58% 29 75.95 1012.6
18 17:53 SW 13 16.09 Mostly Cloudy BKN055 BKN070 27.8 18.3 56% 29 75.95 1012.4
18 16:53 S 15 16.09 Mostly Cloudy SCT048 BKN060 BKN075 28.3 17.2 51% 29 75.95 1012.5
18 15:53 NW 11 16.09 Fair CLR 30 18.3 49% 31 75.95 1012.5
18 14:53 W 13 16.09 Partly Cloudy FEW043 SCT050 28.9 18.3 53% 30 75.97 1012.8
18 13:53 N 13 G 26 16.09 Fair CLR 29.4 17.8 29.4 24.4 50% 30 75.97 1012.7
18 12:53 NW 19 16.09 Fair CLR 28.9 16.1 46% 29 75.97 1012.6
18 11:53 N 17 16.09 Fair CLR 27.8 18.3 56% 29 75.97 1012.6
18 10:53 N 22 G 35 16.09 Fair CLR 26.1 18.3 62% 27 75.95 1012.5
18 09:53 N 22 16.09 Fair CLR 26.1 20 69% 27 75.92 1012.0
18 08:53 N 19 16.09 A Few Clouds FEW013 25.6 21.7 79% 27 75.87 1011.2
18 07:53 NW 9 16.09 Mostly Cloudy BKN110 24.4 21.7 24.4 23.3 85% 25 75.84 1011.1
18 06:53 W 6 16.09 Mostly Cloudy BKN100 23.9 22.2 90% 23 75.82 1010.8
18 05:53 SW 11 16.09 Overcast OVC007 23.3 22.2 94% 75.79 1010.4
18 04:50 SW 11 16.09 Overcast SCT007 SCT020 OVC032 23.3 22.2 94% 75.74 1009.7
18 03:53 SW 11 16.09 Overcast OVC006 23.3 22.2 94% 75.74 1009.7
18 02:53 S 11 16.09 A Few Clouds FEW007 23.3 22.2 94% 75.69 1009.2
Date Time (edt) Wind (kph) Vis. (km) Weather Sky Cond. Air Dwpt Max. Min. Relative Humidity Wind Chill (°C) Heat Index (°C) altimeter (cm) sea level (mb) 1 hr 3 hr 6 hr
6 hour
Temperature (ºC) Pressure Precipitation (cm)